Yuma MCAS, AZ

11:05 AM MST on September 19, 2017 (GMT -0700)
Yuma Marine Corps Air Station

Weather History for KNYL - August, 2013

Change the Weather History Date:

Wednesday, August 28, 2013

  Actual Average Record
Temperature  
Mean Temperature 95 °F 94 °F  
Max Temperature 107 °F 106 °F 118 °F (1981)
Min Temperature 82 °F 81 °F 60 °F (1920)
Degree Days  
Heating Degree Days 0 0  
Month to date heating degree days 0 0  
Since 1 June heating degree days 0 0  
Since 1 July heating degree days 0 0  
Cooling Degree Days 30 29  
Month to date cooling degree days 810 824  
Year to date cooling degree days 3622 3370  
Since 1 June cooling degree days 2561 2458  
Growing Degree Days 44 (Base 50)    
Moisture  
Dew Point 67 °F    
Average Humidity 44    
Maximum Humidity 65    
Minimum Humidity 23    
Precipitation  
Precipitation T in 0.02 in 0.68 in (1951)
Month to date precipitation 0.02 0.43  
Year to date precipitation 1.60 2.05  
Sea Level Pressure  
Sea Level Pressure 29.74 in    
Wind  
Wind Speed 8 mph (SSW)    
Max Wind Speed 36 mph    
Max Gust Speed 43 mph    
Visibility 10 miles    
Events Rain , Thunderstorm    
T = Trace of Precipitation, MM = Missing Value Source: NWS Daily Summary

Daily Weather History Graph

Daily Weather History Graph

Search for Another Location

Airport or City:

Trip Planner

Search our weather history database for the weather conditions in past years. The results will help you decide how hot, cold, wet, or windy it might be!

Date:

Astronomy

Aug. 28, 2013 Rise Set
Actual Time 6:10 AM MST 7:07 PM MST
Civil Twilight 5:45 AM MST 7:32 PM MST
Nautical Twilight 5:15 AM MST 8:02 PM MST
Astronomical Twilight 4:44 AM MST 8:33 PM MST
Moon No Moon Rise 1:39 PM MST (8/28)
Length of Visible Light 13h 47m
Length of Day
12h 56m
Last Quarter, 46% of the Moon is Illuminated
Aug 28
Last Quarter
Sep 5
New
Sep 12
First Quarter
Sep 19
Full
Sep 26
Last Quarter

Hourly Weather History & Observations

Time (MST) Temp. Heat Index Dew Point Humidity Pressure Visibility Wind Dir Wind Speed Gust Speed Precip Events Conditions
12:57 AM 90.0 °F 93.6 °F 68.0 °F 48% 29.68 in 10.0 mi West 4.6 mph - N/A   Partly Cloudy
1:57 AM 90.0 °F 95.4 °F 70.0 °F 52% 29.68 in 10.0 mi Calm Calm - N/A   Partly Cloudy
2:57 AM 87.1 °F 92.8 °F 71.1 °F 59% 29.67 in 10.0 mi Calm Calm - N/A   Clear
3:57 AM 86.0 °F 91.5 °F 71.1 °F 61% 29.68 in 10.0 mi Calm Calm - N/A   Clear
4:57 AM 86.0 °F 91.5 °F 71.1 °F 61% 29.68 in 10.0 mi Calm Calm - N/A   Clear
5:57 AM 84.9 °F 90.7 °F 72.0 °F 65% 29.70 in 10.0 mi SSW 3.5 mph - N/A   Partly Cloudy
6:57 AM 86.0 °F 90.7 °F 70.0 °F 59% 29.72 in 10.0 mi WSW 4.6 mph - N/A   Partly Cloudy
7:57 AM 88.0 °F 92.1 °F 69.1 °F 53% 29.75 in 10.0 mi Calm Calm - N/A   Scattered Clouds
8:57 AM 91.9 °F 96.9 °F 69.1 °F 47% 29.75 in 10.0 mi Calm Calm - N/A   Scattered Clouds
9:57 AM 98.1 °F 101.8 °F 66.0 °F 35% 29.78 in 10.0 mi NW 3.5 mph - N/A   Scattered Clouds
10:57 AM 100.9 °F 103.3 °F 63.0 °F 29% 29.77 in 10.0 mi Variable 4.6 mph - N/A   Scattered Clouds
11:57 AM 102.0 °F 105.9 °F 64.9 °F 30% 29.76 in 10.0 mi SSW 5.8 mph - N/A   Partly Cloudy
12:57 PM 102.9 °F 105.5 °F 63.0 °F 27% 29.75 in 10.0 mi SSW 10.4 mph - N/A   Partly Cloudy
1:57 PM 105.1 °F 107.8 °F 62.1 °F 25% 29.72 in 10.0 mi South 8.1 mph - N/A   Partly Cloudy
2:57 PM 105.1 °F 107.1 °F 61.0 °F 24% 29.70 in 10.0 mi South 6.9 mph 16.1 mph N/A   Scattered Clouds
3:57 PM 106.0 °F 107.8 °F 61.0 °F 23% 29.68 in 10.0 mi SSW 9.2 mph - N/A   Scattered Clouds
4:57 PM 105.1 °F 107.1 °F 61.0 °F 24% 29.68 in 10.0 mi WNW 4.6 mph - N/A   Scattered Clouds
5:57 PM 105.1 °F 107.8 °F 62.1 °F 25% 29.68 in 10.0 mi NW 8.1 mph - N/A Thunderstorm Thunderstorm
6:57 PM 96.1 °F 101.0 °F 68.0 °F 40% 29.73 in 6.0 mi South 17.3 mph - N/A   Haze
7:57 PM 89.6 °F 93.4 °F 68.0 °F 49% 29.77 in 4.0 mi SSE 25.3 mph - N/A   Haze
8:57 PM 88.0 °F 89.6 °F 64.9 °F 46% 29.80 in 8.0 mi South 18.4 mph - 0.00 in Rain Light Rain
9:57 PM 82.9 °F 87.0 °F 70.0 °F 65% 29.83 in 10.0 mi SSE 19.6 mph 31.1 mph 0.00 in   Mostly Cloudy
10:57 PM 82.0 °F 85.5 °F 69.1 °F 65% 29.83 in 10.0 mi SSE 17.3 mph - N/A   Mostly Cloudy
11:57 PM 84.0 °F 89.0 °F 71.1 °F 65% 29.86 in 10.0 mi ESE 11.5 mph - N/A   Mostly Cloudy